SCP
-0 -0 -0 0 0 0 0 0 0 -0 0 0 0 0 -0 -0 -0 -0 -0 0 0 0 0 -0 0 0 0 -0 -0 -0 -0 -0 -0 -0 -0 -0 -0 -0 -0 -0 0 0 0
-0 -0 -0 -0 0 0 0 -0 -0 -0 -0 -0 -0 -0 -0 -0 -0 -0 -0 0 0 0 0 -0 -0 -0 -0 -0 -0 -0 -0 -0 -0 0 0 -0 0 0 0 0 0 0 0
-0 -0 -0 -0 0 0 0 -0 0 -0 -0 -0 -0 -0 -0 -0 -0 -0 -0 -0 -0 -0 -0 -0 0 -0 -0 -0 -0 -0 0 -0 -0 0 0 0 0 0 0 0 0 0 0
-0 -0 -0 -0 -0 0 0 0 0 0 -0 -0 0 0 -0 -0 -0 -0 -0 -0 -0 -0 -0 -0 -0 -0 -0 -0 -0 0 0 0 0 0 0 0 0 0 0 0 0 0 0
-0 -0 -0 -0 -0 0 0 0 0 0 -0 -0 -0 -0 -0 -0 -0 -0 -0 -0 -0 -0 -0 -0 -0 -0 -0 0 0 0 0 0 0 0 0 0 0 0 0 0 0 0 0
-0 -0 -0 -0 -0 -0 0 0 0 0 -0 -0 -0 -0 -0 -0 0 -0 -0 -0 -0 0 -0 -0 0 -0 0 0 0 0 0 -0 0 0 0 0 0 0 0 0 0 0 0
-0 -0 -0 -0 -0 -0 -0 0 0 -0 -0 0 0 0 0 0 0 -0 0 0 0 0 -0 0 -0 0 0 0 0 0 0 0 0 0 0 0 0 0 0 0 0 0 0
-0 -0 -0 -0 -0 -0 -0 -0 -0 -0 0 0 0 0 0 0 0 0 0 0 0 0 0 0 0 0 0 0 0 0 0 0 0 0 0 0 0 0 0 0 0 0 0
-0 -0 -0 0 0 0 0 0 -0 -0 -0 -0 0 0 0 0 0 0 0 0 0 0 0 0 0 0 0 0 0 0 0 0 0 0 0 0 0 0 0 0 0 0 0
-0 -0 -0 -0 0 -0 -0 -0 0 -0 -0 -0 0 0 0 0 0 0 0 -0 -0 0 0 0 0 0 0 0 0 0 0 0 0 0 0 0 0 0 0 0 0 0 0
0 0 0 -0 0 0 0 0 -0 -0 -0 -0 -0 0 0 0 0 0 0 -0 -0 0 0 0 0 0 0 0 0 0 0 0 0 0 0 0 0 0 0 0 0 0 0
-0 0 -0 -0 -0 -0 -0 0 0 0 0 0 0 0 0 0 0 0 0 0 0 0 0 0 0 0 0 0 0 0 0 0 0 0 0 0 0 0 0 0 0 0 0
0 -0 -0 0 0 0 0 0 0 0 0 0 0 0 0 0 0 0 0 0 0 0 0 0 0 0 0 0 0 0 0 0 0 0 0 0 0 0 0 0 0 0 0
0 0 0 0 0 0 0 0 0 0 0 0 0 0 0 0 0 0 0 0 0 0 0 0 0 0 0 0 0 0 0 0 0 0 0 0 0 0 0 0 0 0 0
0 0 0 0 0 0 0 0 0 0 0 0 0 0 0 0 0 0 0 0 0 0 0 0 0 0 0 0 0 0 0 0 0 0 0 0 0 0 0 0 0 0 0
0 0 0 0 0 0 0 0 0 0 0 0 0 0 0 0 0 0 0 0 0 0 0 0 0 0 0 0 0 0 0 0 0 0 0 0 0 0 0 0 0 0 0
0 0 0 0 0 0 0 0 0 0 0 0 0 0 0 0 0 0 0 0 0 0 0 0 0 0 0 0 0 0 0 0 0 0 0 0 0 0 0 0 0 0 0
0 0 0 0 0 0 0 0 0 0 0 0 0 0 0 0 0 0 0 0 0 0 0 0 0 0 0 0 0 0 0 0 0 0 0 0 0 0 0 0 0 0 0
0 0 0 0 0 0 0 0 0 0 0 0 0 0 0 0 0 0 0 0 0 0 0 0 0 0 0 0 0 0 0 0 0 0 0 0 0 0 0 0 0 0 0
0 0 0 0 0 0 0 0 0 0 0 0 0 0 0 0 0 0 0 0 0 0 0 0 0 0 0 0 0 0 0 0 0 0 0 0 0 0 0 0 0 0 0
0 0 0 0 0 0 0 0 0 0 0 0 0 0 0 0 0 0 0 0 0 0 0 0 0 0 0 0 0 0 0 0 0 0 0 0 0 0 0 0 0 0 0
0 0 0 0 0 0 0 0 0 0 0 0 0 0 0 0 0 0 0 0 0 0 0 0 0 0 0 0 0 0 0 0 0 0 0 0 0 0 0 0 0 0 0
0 0 0 0 0 0 0 0 0 0 0 0 0 0 0 0 0 0 0 0 0 0 0 0 0 0 0 0 0 0 0 0 0 0 0 0 0 0 0 0 0 0 0
0 0 0 0 0 0 0 0 0 0 0 0 0 0 0 0 0 0 0 0 0 0 0 0 0 0 0 0 0 0 0 0 0 0 0 0 0 0 0 0 0 0 0
0 0 0 0 0 0 0 0 0 0 0 0 0 0 0 0 0 0 0 0 0 0 0 0 0 0 0 0 0 0 0 0 0 0 0 0 0 0 0 0 0 0 0
0 0 0 0 0 0 0 0 0 0 0 0 0 0 0 0 0 0 0 0 0 0 0 0 0 0 0 0 0 0 0 0 0 0 0 0 0 0 0 0 0 0 0
Wind_Speed_500mb
18 20 23 27 28 29 25 25 27 26 27 27 24 19 18 21 25 28 22 14 8 10 11 11 15 17 19 20 20 21 23 26 29 35 35 23 22 22 20 19 11 12 11
25 23 25 27 30 29 28 23 21 21 22 25 21 15 16 16 16 15 17 12 11 15 10 13 14 15 18 19 20 22 24 28 32 33 30 28 14 13 10 7 10 6 5
26 27 25 27 28 27 26 21 15 16 16 16 14 11 9 9 10 9 8 6 5 10 12 10 14 15 15 17 19 20 22 23 29 31 26 20 16 12 10 9 8 7 4
24 27 25 26 28 28 23 18 16 14 12 12 9 8 8 8 8 9 8 7 7 8 5 7 10 11 14 15 16 18 18 18 18 19 13 10 14 14 14 11 8 8 8
19 22 23 24 28 29 26 20 15 11 9 8 2 4 7 6 5 6 6 7 7 9 5 3 4 6 9 11 12 13 14 13 14 15 9 6 8 12 12 12 11 8 10
28 24 21 22 24 28 26 21 17 10 5 4 7 4 4 3 2 2 2 1 2 2 4 2 3 5 7 7 8 9 9 9 8 10 7 7 8 12 10 10 11 10 10
30 25 20 21 22 23 24 21 18 13 7 4 4 3 5 4 3 1 1 1 1 2 4 7 7 9 12 10 10 9 8 7 6 5 11 11 13 14 14 11 10 10 11
30 28 21 21 22 22 22 21 18 17 10 6 2 5 6 4 3 2 1 1 2 3 5 7 10 12 14 15 14 12 11 10 8 8 15 16 15 16 17 16 13 12 11
24 26 24 23 23 23 23 24 22 19 13 9 6 6 6 5 3 2 2 3 4 5 5 7 10 13 15 16 16 15 14 13 12 14 12 20 17 17 18 18 17 16 14
18 17 22 22 20 20 18 18 17 16 14 10 7 4 3 2 2 3 5 5 7 9 11 12 13 15 16 17 18 19 18 17 16 15 16 20 18 19 19 19 18 17 19
19 21 13 9 13 14 16 15 14 14 13 12 11 9 7 7 8 7 10 10 12 14 16 17 18 19 21 20 22 22 22 23 23 17 23 26 22 22 21 20 20 20 20
26 24 19 17 11 11 9 12 14 14 13 12 11 12 11 11 7 14 18 16 19 20 22 23 25 26 27 26 25 25 27 23 24 25 26 28 25 25 25 24 22 24 24
27 25 26 24 21 19 17 14 12 13 12 13 13 12 11 11 11 17 22 23 22 22 24 26 27 28 29 28 26 27 32 33 34 30 28 32 30 28 28 27 26 28 27
27 25 26 25 23 20 17 12 10 10 11 12 13 14 15 15 17 20 23 23 26 27 28 29 31 34 35 35 35 35 38 40 39 35 32 36 38 33 31 30 32 32 30
30 24 24 23 20 17 17 16 15 16 16 17 19 18 18 20 21 22 22 24 26 30 32 33 33 34 36 40 40 41 41 38 39 39 39 41 43 38 35 35 36 35 32
26 29 26 22 21 20 18 19 20 20 22 24 25 26 25 23 24 26 27 30 33 36 37 39 39 41 43 45 48 45 42 42 41 38 39 39 39 40 36 38 38 37 33
27 26 25 26 24 25 25 24 24 26 27 29 31 31 33 31 29 30 32 35 38 40 43 45 47 47 49 49 52 52 50 52 47 49 45 43 45 38 38 38 35 34 34
23 26 28 31 32 29 30 31 32 32 32 34 34 36 38 39 37 37 38 39 41 42 44 48 43 44 45 49 53 53 54 51 49 49 48 48 42 40 40 38 32 34 37
25 28 28 30 34 33 35 37 37 37 41 41 41 39 40 43 43 42 41 41 41 43 46 48 52 54 52 56 54 60 56 53 50 51 53 47 47 53 52 45 43 45 46
29 30 30 32 36 38 39 41 44 47 48 49 49 47 44 44 44 45 44 43 44 47 49 51 57 60 54 54 57 61 57 60 59 54 53 53 56 57 57 58 59 57 52
31 35 36 39 41 43 45 48 51 53 52 53 50 48 49 50 51 50 49 48 49 53 56 58 60 62 61 51 52 60 58 60 61 60 52 49 49 58 63 67 67 64 59
20 28 31 37 43 43 46 48 47 48 48 46 44 46 47 49 52 54 51 48 50 54 55 56 58 60 56 44 48 54 50 49 46 46 49 47 43 41 51 56 58 63 62
38 41 45 43 46 45 41 44 44 46 46 45 41 46 49 51 46 44 44 47 52 55 55 54 54 38 39 36 42 52 27 14 21 27 39 44 46 42 41 48 53 56 54
29 28 32 33 37 39 41 43 41 40 36 30 35 37 39 40 39 41 44 46 47 48 51 51 45 36 39 47 47 47 51 54 49 39 42 45 49 46 51 49 56 61 62
15 16 21 23 25 26 26 26 29 31 31 31 33 36 37 36 37 39 40 40 42 44 46 44 38 36 38 43 49 53 61 65 64 60 57 42 48 52 54 55 59 60 71
15 15 17 18 18 16 16 17 18 20 24 26 26 27 29 32 35 38 39 39 39 40 40 38 36 39 42 46 49 52 54 50 62 58 56 55 57 54 59 58 60 66 69
Wind_Direction_500mb
177 150 138 137 136 131 128 119 112 105 99 104 124 128 114 112 103 100 98 94 63 33 32 29 43 47 49 53 60 67 70 74 77 70 57 74 104 105 97 98 132 103 74
163 146 140 138 142 142 141 135 121 122 121 114 117 130 123 126 131 124 106 75 25 9 12 40 52 52 50 52 59 63 72 75 75 67 55 42 66 97 95 73 57 83 35
166 143 142 141 143 147 149 147 139 130 137 150 156 157 158 154 155 170 182 176 107 59 25 61 52 51 55 54 57 63 68 77 81 78 60 18 34 40 49 49 61 61 40
162 147 143 148 145 148 148 151 138 131 126 137 154 183 197 214 216 216 216 222 228 185 78 37 52 48 55 51 53 57 63 71 74 78 84 106 357 27 40 42 53 52 61
163 153 143 151 153 154 154 154 145 132 129 123 107 213 220 218 227 234 239 244 239 242 152 257 25 53 57 49 46 49 54 60 66 60 22 60 335 13 24 35 39 19 6
169 164 146 151 158 159 163 165 146 140 133 49 22 48 110 128 144 204 260 360 100 209 188 154 357 6 19 21 32 29 31 37 43 31 334 339 336 344 354 16 25 20 4
168 166 148 145 150 159 165 167 166 176 191 311 353 99 110 99 93 97 56 340 284 269 241 250 279 334 332 343 348 351 349 343 0 15 334 320 322 325 333 332 351 6 6
173 152 145 133 133 147 162 170 177 189 215 259 280 178 148 140 137 125 156 279 295 271 262 279 290 304 312 314 317 323 323 321 318 314 298 301 310 309 312 319 326 322 337
162 147 148 143 141 147 159 170 181 194 202 207 213 183 174 164 184 216 251 287 302 315 310 302 300 299 304 309 311 313 314 312 305 290 290 288 305 304 301 302 310 317 309
161 163 165 165 158 156 161 168 178 189 198 203 216 219 182 180 260 307 296 294 299 308 308 301 299 300 299 302 304 306 307 307 302 290 303 293 298 294 297 295 293 300 303
187 174 183 199 179 166 169 179 186 194 201 208 219 232 239 259 260 291 286 291 293 296 296 298 298 298 297 299 299 300 303 302 292 300 288 291 297 297 291 292 289 289 291
192 178 188 201 208 188 221 219 208 211 217 225 230 236 245 262 278 298 299 299 295 293 293 294 293 292 293 294 293 294 302 297 291 288 284 286 291 291 290 289 288 285 285
193 189 188 197 205 206 212 235 215 232 226 233 232 240 253 255 269 266 274 290 294 297 294 296 294 296 295 293 290 287 292 300 293 291 291 287 289 287 286 285 282 279 280
193 198 198 201 205 208 214 228 246 249 257 258 262 264 269 276 280 286 294 298 304 306 306 304 307 305 304 300 290 276 269 270 276 280 280 284 288 288 284 281 277 276 277
188 203 216 206 208 213 222 238 237 251 261 266 268 275 280 287 292 292 294 294 295 298 302 302 300 297 293 294 291 285 282 277 278 277 277 280 284 287 283 278 276 276 275
203 208 219 225 224 231 239 243 254 257 265 271 271 276 277 280 285 290 294 298 301 300 299 297 294 294 292 291 292 290 283 278 278 275 276 274 274 278 283 276 271 272 273
219 214 225 238 237 239 249 256 260 264 268 270 275 271 275 280 281 283 288 293 295 294 293 292 290 286 282 281 279 283 285 287 285 282 281 283 282 281 277 280 274 267 269
233 238 238 240 247 252 253 259 264 268 268 272 272 274 274 275 278 278 282 287 289 289 286 284 282 283 285 283 283 284 284 284 278 280 284 279 283 279 281 276 279 275 276
227 240 252 258 259 258 260 262 263 267 271 274 274 274 271 272 274 275 280 287 288 286 284 283 281 279 277 281 277 286 287 289 287 273 269 267 269 270 270 273 276 275 276
241 236 239 250 265 271 270 263 263 263 264 266 269 269 268 268 270 274 278 284 288 288 286 280 278 280 278 275 276 282 280 285 288 283 279 273 266 263 262 263 264 265 266
247 255 253 250 246 251 262 266 268 269 268 269 269 267 260 256 261 266 272 279 288 292 294 289 281 277 278 276 278 278 276 278 285 288 281 277 268 259 259 261 264 267 268
241 252 260 267 268 265 263 265 267 267 266 262 261 264 267 269 268 268 272 280 288 292 292 289 283 273 272 274 273 280 284 284 286 267 264 267 264 264 273 267 270 271 271
258 264 271 269 271 271 264 257 253 257 261 261 258 264 270 271 274 273 275 284 290 293 293 292 290 284 281 274 261 269 276 281 296 269 263 262 270 273 269 271 268 259 261
279 280 283 278 272 268 263 261 258 256 255 257 264 271 281 284 282 281 284 289 292 294 294 292 282 277 273 271 268 269 268 279 288 287 277 262 268 270 261 253 260 260 250
302 309 310 305 291 285 279 272 269 271 270 270 269 276 282 284 283 283 287 290 294 296 296 294 289 278 274 274 272 274 275 276 277 282 284 274 260 271 255 264 263 260 254
30 10 357 352 342 321 299 287 279 278 281 282 284 285 287 287 288 292 295 296 296 296 300 298 290 283 280 277 277 273 274 278 281 275 282 281 281 266 254 252 250 252 244
Wind_Speed_850mb
18 20 23 27 28 29 25 25 27 26 27 27 24 19 18 21 25 28 22 14 8 10 11 11 15 17 19 20 20 21 23 26 29 35 35 23 22 22 20 19 11 12 11
25 23 25 27 30 29 28 23 21 21 22 25 21 15 16 16 16 15 17 12 11 15 10 13 14 15 18 19 20 22 24 28 32 33 30 28 14 13 10 7 10 6 5
26 27 25 27 28 27 26 21 15 16 16 16 14 11 9 9 10 9 8 6 5 10 12 10 14 15 15 17 19 20 22 23 29 31 26 20 16 12 10 9 8 7 4
24 27 25 26 28 28 23 18 16 14 12 12 9 8 8 8 8 9 8 7 7 8 5 7 10 11 14 15 16 18 18 18 18 19 13 10 14 14 14 11 8 8 8
19 22 23 24 28 29 26 20 15 11 9 8 2 4 7 6 5 6 6 7 7 9 5 3 4 6 9 11 12 13 14 13 14 15 9 6 8 12 12 12 11 8 10
28 24 21 22 24 28 26 21 17 10 5 4 7 4 4 3 2 2 2 1 2 2 4 2 3 5 7 7 8 9 9 9 8 10 7 7 8 12 10 10 11 10 10
30 25 20 21 22 23 24 21 18 13 7 4 4 3 5 4 3 1 1 1 1 2 4 7 7 9 12 10 10 9 8 7 6 5 11 11 13 14 14 11 10 10 11
30 28 21 21 22 22 22 21 18 17 10 6 2 5 6 4 3 2 1 1 2 3 5 7 10 12 14 15 14 12 11 10 8 8 15 16 15 16 17 16 13 12 11
24 26 24 23 23 23 23 24 22 19 13 9 6 6 6 5 3 2 2 3 4 5 5 7 10 13 15 16 16 15 14 13 12 14 12 20 17 17 18 18 17 16 14
18 17 22 22 20 20 18 18 17 16 14 10 7 4 3 2 2 3 5 5 7 9 11 12 13 15 16 17 18 19 18 17 16 15 16 20 18 19 19 19 18 17 19
19 21 13 9 13 14 16 15 14 14 13 12 11 9 7 7 8 7 10 10 12 14 16 17 18 19 21 20 22 22 22 23 23 17 23 26 22 22 21 20 20 20 20
26 24 19 17 11 11 9 12 14 14 13 12 11 12 11 11 7 14 18 16 19 20 22 23 25 26 27 26 25 25 27 23 24 25 26 28 25 25 25 24 22 24 24
27 25 26 24 21 19 17 14 12 13 12 13 13 12 11 11 11 17 22 23 22 22 24 26 27 28 29 28 26 27 32 33 34 30 28 32 30 28 28 27 26 28 27
27 25 26 25 23 20 17 12 10 10 11 12 13 14 15 15 17 20 23 23 26 27 28 29 31 34 35 35 35 35 38 40 39 35 32 36 38 33 31 30 32 32 30
30 24 24 23 20 17 17 16 15 16 16 17 19 18 18 20 21 22 22 24 26 30 32 33 33 34 36 40 40 41 41 38 39 39 39 41 43 38 35 35 36 35 32
26 29 26 22 21 20 18 19 20 20 22 24 25 26 25 23 24 26 27 30 33 36 37 39 39 41 43 45 48 45 42 42 41 38 39 39 39 40 36 38 38 37 33
27 26 25 26 24 25 25 24 24 26 27 29 31 31 33 31 29 30 32 35 38 40 43 45 47 47 49 49 52 52 50 52 47 49 45 43 45 38 38 38 35 34 34
23 26 28 31 32 29 30 31 32 32 32 34 34 36 38 39 37 37 38 39 41 42 44 48 43 44 45 49 53 53 54 51 49 49 48 48 42 40 40 38 32 34 37
25 28 28 30 34 33 35 37 37 37 41 41 41 39 40 43 43 42 41 41 41 43 46 48 52 54 52 56 54 60 56 53 50 51 53 47 47 53 52 45 43 45 46
29 30 30 32 36 38 39 41 44 47 48 49 49 47 44 44 44 45 44 43 44 47 49 51 57 60 54 54 57 61 57 60 59 54 53 53 56 57 57 58 59 57 52
31 35 36 39 41 43 45 48 51 53 52 53 50 48 49 50 51 50 49 48 49 53 56 58 60 62 61 51 52 60 58 60 61 60 52 49 49 58 63 67 67 64 59
20 28 31 37 43 43 46 48 47 48 48 46 44 46 47 49 52 54 51 48 50 54 55 56 58 60 56 44 48 54 50 49 46 46 49 47 43 41 51 56 58 63 62
38 41 45 43 46 45 41 44 44 46 46 45 41 46 49 51 46 44 44 47 52 55 55 54 54 38 39 36 42 52 27 14 21 27 39 44 46 42 41 48 53 56 54
29 28 32 33 37 39 41 43 41 40 36 30 35 37 39 40 39 41 44 46 47 48 51 51 45 36 39 47 47 47 51 54 49 39 42 45 49 46 51 49 56 61 62
15 16 21 23 25 26 26 26 29 31 31 31 33 36 37 36 37 39 40 40 42 44 46 44 38 36 38 43 49 53 61 65 64 60 57 42 48 52 54 55 59 60 71
15 15 17 18 18 16 16 17 18 20 24 26 26 27 29 32 35 38 39 39 39 40 40 38 36 39 42 46 49 52 54 50 62 58 56 55 57 54 59 58 60 66 69
Wind_Direction_850mb
177 150 138 137 136 131 128 119 112 105 99 104 124 128 114 112 103 100 98 94 63 33 32 29 43 47 49 53 60 67 70 74 77 70 57 74 104 105 97 98 132 103 74
163 146 140 138 142 142 141 135 121 122 121 114 117 130 123 126 131 124 106 75 25 9 12 40 52 52 50 52 59 63 72 75 75 67 55 42 66 97 95 73 57 83 35
166 143 142 141 143 147 149 147 139 130 137 150 156 157 158 154 155 170 182 176 107 59 25 61 52 51 55 54 57 63 68 77 81 78 60 18 34 40 49 49 61 61 40
162 147 143 148 145 148 148 151 138 131 126 137 154 183 197 214 216 216 216 222 228 185 78 37 52 48 55 51 53 57 63 71 74 78 84 106 357 27 40 42 53 52 61
163 153 143 151 153 154 154 154 145 132 129 123 107 213 220 218 227 234 239 244 239 242 152 257 25 53 57 49 46 49 54 60 66 60 22 60 335 13 24 35 39 19 6
169 164 146 151 158 159 163 165 146 140 133 49 22 48 110 128 144 204 260 360 100 209 188 154 357 6 19 21 32 29 31 37 43 31 334 339 336 344 354 16 25 20 4
168 166 148 145 150 159 165 167 166 176 191 311 353 99 110 99 93 97 56 340 284 269 241 250 279 334 332 343 348 351 349 343 0 15 334 320 322 325 333 332 351 6 6
173 152 145 133 133 147 162 170 177 189 215 259 280 178 148 140 137 125 156 279 295 271 262 279 290 304 312 314 317 323 323 321 318 314 298 301 310 309 312 319 326 322 337
162 147 148 143 141 147 159 170 181 194 202 207 213 183 174 164 184 216 251 287 302 315 310 302 300 299 304 309 311 313 314 312 305 290 290 288 305 304 301 302 310 317 309
161 163 165 165 158 156 161 168 178 189 198 203 216 219 182 180 260 307 296 294 299 308 308 301 299 300 299 302 304 306 307 307 302 290 303 293 298 294 297 295 293 300 303
187 174 183 199 179 166 169 179 186 194 201 208 219 232 239 259 260 291 286 291 293 296 296 298 298 298 297 299 299 300 303 302 292 300 288 291 297 297 291 292 289 289 291
192 178 188 201 208 188 221 219 208 211 217 225 230 236 245 262 278 298 299 299 295 293 293 294 293 292 293 294 293 294 302 297 291 288 284 286 291 291 290 289 288 285 285
193 189 188 197 205 206 212 235 215 232 226 233 232 240 253 255 269 266 274 290 294 297 294 296 294 296 295 293 290 287 292 300 293 291 291 287 289 287 286 285 282 279 280
193 198 198 201 205 208 214 228 246 249 257 258 262 264 269 276 280 286 294 298 304 306 306 304 307 305 304 300 290 276 269 270 276 280 280 284 288 288 284 281 277 276 277
188 203 216 206 208 213 222 238 237 251 261 266 268 275 280 287 292 292 294 294 295 298 302 302 300 297 293 294 291 285 282 277 278 277 277 280 284 287 283 278 276 276 275
203 208 219 225 224 231 239 243 254 257 265 271 271 276 277 280 285 290 294 298 301 300 299 297 294 294 292 291 292 290 283 278 278 275 276 274 274 278 283 276 271 272 273
219 214 225 238 237 239 249 256 260 264 268 270 275 271 275 280 281 283 288 293 295 294 293 292 290 286 282 281 279 283 285 287 285 282 281 283 282 281 277 280 274 267 269
233 238 238 240 247 252 253 259 264 268 268 272 272 274 274 275 278 278 282 287 289 289 286 284 282 283 285 283 283 284 284 284 278 280 284 279 283 279 281 276 279 275 276
227 240 252 258 259 258 260 262 263 267 271 274 274 274 271 272 274 275 280 287 288 286 284 283 281 279 277 281 277 286 287 289 287 273 269 267 269 270 270 273 276 275 276
241 236 239 250 265 271 270 263 263 263 264 266 269 269 268 268 270 274 278 284 288 288 286 280 278 280 278 275 276 282 280 285 288 283 279 273 266 263 262 263 264 265 266
247 255 253 250 246 251 262 266 268 269 268 269 269 267 260 256 261 266 272 279 288 292 294 289 281 277 278 276 278 278 276 278 285 288 281 277 268 259 259 261 264 267 268
241 252 260 267 268 265 263 265 267 267 266 262 261 264 267 269 268 268 272 280 288 292 292 289 283 273 272 274 273 280 284 284 286 267 264 267 264 264 273 267 270 271 271
258 264 271 269 271 271 264 257 253 257 261 261 258 264 270 271 274 273 275 284 290 293 293 292 290 284 281 274 261 269 276 281 296 269 263 262 270 273 269 271 268 259 261
279 280 283 278 272 268 263 261 258 256 255 257 264 271 281 284 282 281 284 289 292 294 294 292 282 277 273 271 268 269 268 279 288 287 277 262 268 270 261 253 260 260 250
302 309 310 305 291 285 279 272 269 271 270 270 269 276 282 284 283 283 287 290 294 296 296 294 289 278 274 274 272 274 275 276 277 282 284 274 260 271 255 264 263 260 254
30 10 357 352 342 321 299 287 279 278 281 282 284 285 287 287 288 292 295 296 296 296 300 298 290 283 280 277 277 273 274 278 281 275 282 281 281 266 254 252 250 252 244